,,Stat6,,Stat2,,Stat8,,Stat9,,Stat10,,Wind1,,Wind1,
time,status,PA1M_AVG,status,PR1M_SUM,status,RH1M_AVG,status,SR1M_AVG,status,TA1M_AVG,status,W1dAve1m,status,W1sAve1m,
2008-05-22, 00:00:00,VALID,917.118,VALID,0,VALID,100,VALID,0.0849042,VALID,20.3175,VALID,123,VALID,0.962674,
2008-05-22, 00:01:00,VALID,917.108,VALID,0,VALID,100,VALID,0.101885,VALID,20.3273,VALID,117,VALID,0.805051,
2008-05-22, 00:02:00,VALID,917.062,VALID,0,VALID,100,VALID,0.0849042,VALID,20.35,VALID,152,VALID,1.47556,
2008-05-22, 00:03:00,VALID,917.035,VALID,0,VALID,100,VALID,0.0339617,VALID,20.3762,VALID,150,VALID,1.63746,
2008-05-22, 00:04:00,VALID,917.003,VALID,0,VALID,100,VALID,0.0679233,VALID,20.3922,VALID,150,VALID,1.28622,
2008-05-22, 00:05:00,VALID,916.958,VALID,0,VALID,100,VALID,0.0509425,VALID,20.3989,VALID,171,VALID,1.51935,
2008-05-22, 00:06:00,VALID,916.937,VALID,0,VALID,100,VALID,0.0509425,VALID,20.4019,VALID,143,VALID,0.768169,
2008-05-22, 00:07:00,VALID,916.913,VALID,0,VALID,100,VALID,0,VALID,20.4119,VALID,153,VALID,0.895419,
2008-05-22, 00:08:00,VALID,916.891,VALID,0,VALID,100,VALID,-0.0339617,VALID,20.4127,VALID,146,VALID,0.838194,
2008-05-22, 00:09:00,VALID,916.887,VALID,0,VALID,100,VALID,-0.101885,VALID,20.397,VALID,143,VALID,1.01953,
2008-05-22, 00:10:00,VALID,916.891,VALID,0,VALID,100,VALID,-0.0849042,VALID,20.3977,VALID,131,VALID,1.47283,
2008-05-22, 00:11:00,VALID,916.883,VALID,0,VALID,100,VALID,-0.101885,VALID,20.3748,VALID,136,VALID,1.38663,
2008-05-22, 00:12:00,VALID,916.874,VALID,0,VALID,100,VALID,-0.118866,VALID,20.3648,VALID,145,VALID,1.41506,
2008-05-22, 00:13:00,VALID,916.849,VALID,0,VALID,100,VALID,-0.101885,VALID,20.3653,VALID,148,VALID,1.03997,
2008-05-22, 00:14:00,VALID,916.836,VALID,0,VALID,100,VALID,-0.0849042,VALID,20.3453,VALID,148,VALID,1.26235,
2008-05-22, 00:15:00,VALID,916.808,VALID,0,VALID,100,VALID,-0.0849042,VALID,20.335,VALID,152,VALID,1.24945,
2008-05-22, 00:16:00,VALID,916.8,VALID,0,VALID,100,VALID,-0.0679233,VALID,20.3161,VALID,156,VALID,1.28311,
2008-05-22, 00:17:00,VALID,916.775,VALID,0,VALID,100,VALID,-0.0849042,VALID,20.2993,VALID,154,VALID,1.22972,
2008-05-22, 00:18:00,VALID,916.759,VALID,0,VALID,100,VALID,-0.0509425,VALID,20.2704,VALID,156,VALID,1.61198,
2008-05-22, 00:19:00,VALID,916.734,VALID,0,VALID,100,VALID,-0.0849042,VALID,20.2379,VALID,164,VALID,1.51467,
2008-05-22, 00:20:00,VALID,916.716,VALID,0,VALID,100,VALID,-0.101885,VALID,20.209,VALID,160,VALID,1.37995,
2008-05-22, 00:21:00,VALID,916.709,VALID,0,VALID,100,VALID,-0.101885,VALID,20.1733,VALID,168,VALID,1.11012,
2008-05-22, 00:22:00,VALID,916.708,VALID,0,VALID,100,VALID,-0.101885,VALID,20.1438,VALID,151,VALID,1.00744,
2008-05-22, 00:23:00,VALID,916.706,VALID,0,VALID,100,VALID,-0.0339617,VALID,20.1069,VALID,160,VALID,1.59508,
2008-05-22, 00:24:00,VALID,916.685,VALID,0,VALID,100,VALID,0.0509425,VALID,20.1031,VALID,162,VALID,1.10175,
2008-05-22, 00:25:00,VALID,916.696,VALID,0,VALID,100,VALID,0.0169808,VALID,20.0936,VALID,148,VALID,1.37072,
2008-05-22, 00:26:00,VALID,916.671,VALID,0,VALID,100,VALID,0.0339617,VALID,20.0807,VALID,149,VALID,1.42152,
2008-05-22, 00:27:00,VALID,916.659,VALID,0,VALID,100,VALID,0.0169808,VALID,20.0901,VALID,145,VALID,1.60828,
2008-05-22, 00:28:00,VALID,916.631,VALID,0,VALID,100,VALID,0.0169808,VALID,20.0999,VALID,144,VALID,1.43594,
2008-05-22, 00:29:00,VALID,916.608,VALID,0,VALID,100,VALID,0.0339617,VALID,20.1126,VALID,145,VALID,1.53411,
2008-05-22, 00:30:00,VALID,916.606,VALID,0,VALID,100,VALID,0.0339617,VALID,20.1161,VALID,143,VALID,1.19569,
2008-05-22, 00:31:00,VALID,916.608,VALID,0,VALID,100,VALID,0.0169808,VALID,20.1386,VALID,136,VALID,1.21024,
2008-05-22, 00:32:00,VALID,916.62,VALID,0,VALID,100,VALID,0,VALID,20.1488,VALID,135,VALID,1.75056,
2008-05-22, 00:33:00,VALID,916.608,VALID,0,VALID,100,VALID,0.0169808,VALID,20.1685,VALID,136,VALID,1.42702,
2008-05-22, 00:34:00,VALID,916.598,VALID,0,VALID,100,VALID,0,VALID,20.2007,VALID,129,VALID,1.83939,
2008-05-22, 00:35:00,VALID,916.606,VALID,0,VALID,100,VALID,0,VALID,20.2404,VALID,130,VALID,2.51124,
2008-05-22, 00:36:00,VALID,916.594,VALID,0,VALID,100,VALID,0,VALID,20.2756,VALID,131,VALID,2.14262,
2008-05-22, 00:37:00,VALID,916.581,VALID,0,VALID,100,VALID,-0.0339617,VALID,20.3148,VALID,140,VALID,1.99237,
2008-05-22, 00:38:00,VALID,916.574,VALID,0,VALID,100,VALID,0,VALID,20.331,VALID,140,VALID,1.75273,
2008-05-22, 00:39:00,VALID,916.581,VALID,0,VALID,100,VALID,-0.0339617,VALID,20.3467,VALID,134,VALID,1.50298,
2008-05-22, 00:40:00,VALID,916.591,VALID,0,VALID,100,VALID,0,VALID,20.3535,VALID,144,VALID,0.999637,
2008-05-22, 00:41:00,VALID,916.602,VALID,0,VALID,100,VALID,0.0339617,VALID,20.3632,VALID,144,VALID,1.5625,
2008-05-22, 00:42:00,VALID,916.614,VALID,0,VALID,100,VALID,-0.0169808,VALID,20.3565,VALID,138,VALID,1.49386,
2008-05-22, 00:43:00,VALID,916.628,VALID,0,VALID,100,VALID,0.0339617,VALID,20.3667,VALID,123,VALID,0.908296,
2008-05-22, 00:44:00,VALID,916.631,VALID,0,VALID,100,VALID,0.0339617,VALID,20.3597,VALID,118,VALID,0.955273,
2008-05-22, 00:45:00,VALID,916.618,VALID,0,VALID,100,VALID,0.0339617,VALID,20.3565,VALID,134,VALID,1.5691,
2008-05-22, 00:46:00,VALID,916.604,VALID,0,VALID,100,VALID,0.0169808,VALID,20.3595,VALID,125,VALID,1.09175,
2008-05-22, 00:47:00,VALID,916.595,VALID,0,VALID,100,VALID,0.0169808,VALID,20.3659,VALID,118,VALID,1.16006,
2008-05-22, 00:48:00,VALID,916.594,VALID,0,VALID,100,VALID,0.0169808,VALID,20.3692,VALID,97,VALID,1.3441,
2008-05-22, 00:49:00,VALID,916.591,VALID,0,VALID,100,VALID,0.0339617,VALID,20.363,VALID,108,VALID,1.16229,
2008-05-22, 00:50:00,VALID,916.578,VALID,0,VALID,100,VALID,-0.0509425,VALID,20.36,VALID,105,VALID,1.47161,
2008-05-22, 00:51:00,VALID,916.591,VALID,0,VALID,100,VALID,0,VALID,20.3532,VALID,116,VALID,0.871838,
2008-05-22, 00:52:00,VALID,916.591,VALID,0,VALID,100,VALID,0,VALID,20.3402,VALID,114,VALID,1.22798,
2008-05-22, 00:53:00,VALID,916.602,VALID,0,VALID,100,VALID,0.0169808,VALID,20.3367,VALID,103,VALID,1.19705,
2008-05-22, 00:54:00,VALID,916.599,VALID,0,VALID,100,VALID,0.0169808,VALID,20.3308,VALID,107,VALID,1.24256,
2008-05-22, 00:55:00,VALID,916.594,VALID,0,VALID,100,VALID,-0.0169808,VALID,20.324,VALID,101,VALID,1.18636,
2008-05-22, 00:56:00,VALID,916.583,VALID,0,VALID,100,VALID,0.0169808,VALID,20.324,VALID,104,VALID,1.58296,
2008-05-22, 00:57:00,VALID,916.576,VALID,0,VALID,100,VALID,0,VALID,20.3305,VALID,105,VALID,0.772675,
2008-05-22, 00:58:00,VALID,916.566,VALID,0,VALID,100,VALID,0,VALID,20.324,VALID,74,VALID,0.355283,
2008-05-22, 00:59:00,VALID,916.567,VALID,0,VALID,100,VALID,0,VALID,20.3208,VALID,49,VALID,0,
2008-05-22, 01:00:00,VALID,916.557,VALID,0,VALID,100,VALID,0,VALID,20.3148,VALID,47,VALID,0,
2008-05-22, 01:01:00,VALID,916.576,VALID,0,VALID,100,VALID,0.0339617,VALID,20.3011,VALID,47,VALID,0,
2008-05-22, 01:02:00,VALID,916.547,VALID,0,VALID,100,VALID,0,VALID,20.2851,VALID,45,VALID,0,
2008-05-22, 01:03:00,VALID,916.542,VALID,0,VALID,100,VALID,0.0169808,VALID,20.2786,VALID,29,VALID,0.341264,
2008-05-22, 01:04:00,VALID,916.517,VALID,0,VALID,100,VALID,0.0339617,VALID,20.2589,VALID,19,VALID,0.622692,
2008-05-22, 01:05:00,VALID,916.505,VALID,0,VALID,100,VALID,0.0339617,VALID,20.2494,VALID,12,VALID,0.649368,
2008-05-22, 01:06:00,VALID,916.491,VALID,0,VALID,100,VALID,0,VALID,20.2302,VALID,12,VALID,0.641992,
2008-05-22, 01:07:00,VALID,916.476,VALID,0,VALID,100,VALID,0.0679233,VALID,20.2134,VALID,10,VALID,0.00835756,
2008-05-22, 01:08:00,VALID,916.457,VALID,0,VALID,100,VALID,-0.0339617,VALID,20.1885,VALID,9,VALID,0,
2008-05-22, 01:09:00,VALID,916.443,VALID,0,VALID,100,VALID,-0.101885,VALID,20.186,VALID,9,VALID,0,
2008-05-22, 01:10:00,VALID,916.445,VALID,0,VALID,100,VALID,-0.101885,VALID,20.1893,VALID,9,VALID,0,
2008-05-22, 01:11:00,VALID,916.44,VALID,0,VALID,100,VALID,-0.0679233,VALID,20.1893,VALID,9,VALID,0,
2008-05-22, 01:12:00,VALID,916.454,VALID,0,VALID,100,VALID,-0.101885,VALID,20.1763,VALID,9,VALID,0,
2008-05-22, 01:13:00,VALID,916.459,VALID,0,VALID,100,VALID,-0.0679233,VALID,20.1533,VALID,9,VALID,0,
2008-05-22, 01:14:00,VALID,916.447,VALID,0,VALID,100,VALID,-0.0509425,VALID,20.1568,VALID,9,VALID,0,
2008-05-22, 01:15:00,VALID,916.433,VALID,0,VALID,100,VALID,-0.0849042,VALID,20.1371,VALID,9,VALID,0,
2008-05-22, 01:16:00,VALID,916.417,VALID,0,VALID,100,VALID,-0.0679233,VALID,20.1274,VALID,9,VALID,0,
2008-05-22, 01:17:00,VALID,916.382,VALID,0,VALID,100,VALID,-0.0509425,VALID,20.1244,VALID,9,VALID,0,
2008-05-22, 01:18:00,VALID,916.36,VALID,0,VALID,100,VALID,-0.101885,VALID,20.1079,VALID,9,VALID,0,
2008-05-22, 01:19:00,VALID,916.313,VALID,0,VALID,100,VALID,-0.101885,VALID,20.1114,VALID,15,VALID,0,
2008-05-22, 01:20:00,VALID,916.276,VALID,0,VALID,100,VALID,-0.0849042,VALID,20.1079,VALID,178,VALID,0.84811,
2008-05-22, 01:21:00,VALID,916.236,VALID,0,VALID,100,VALID,-0.0849042,VALID,20.1179,VALID,182,VALID,1.00686,
2008-05-22, 01:22:00,VALID,916.202,VALID,0,VALID,100,VALID,-0.101885,VALID,20.1209,VALID,185,VALID,0.925114,
2008-05-22, 01:23:00,VALID,916.15,VALID,0,VALID,100,VALID,-0.0339617,VALID,20.1368,VALID,185,VALID,0.922057,
2008-05-22, 01:24:00,VALID,916.115,VALID,0,VALID,100,VALID,0,VALID,20.1358,VALID,185,VALID,0.778773,
2008-05-22, 01:25:00,VALID,916.097,VALID,0,VALID,100,VALID,0,VALID,20.1358,VALID,185,VALID,0.506882,
2008-05-22, 01:26:00,VALID,916.076,VALID,0,VALID,100,VALID,0,VALID,20.1293,VALID,185,VALID,0.503806,
2008-05-22, 01:27:00,VALID,916.077,VALID,0,VALID,100,VALID,0.0169808,VALID,20.1293,VALID,185,VALID,0.171113,
2008-05-22, 01:28:00,VALID,916.096,VALID,0,VALID,100,VALID,0,VALID,20.1293,VALID,185,VALID,0,
2008-05-22, 01:29:00,VALID,916.118,VALID,0,VALID,100,VALID,0.0169808,VALID,20.1361,VALID,170,VALID,0,
2008-05-22, 01:30:00,VALID,916.115,VALID,0,VALID,100,VALID,0.0169808,VALID,20.1421,VALID,170,VALID,0,
2008-05-22, 01:31:00,VALID,916.132,VALID,0,VALID,100,VALID,0.0339617,VALID,20.1488,VALID,169,VALID,0,
2008-05-22, 01:32:00,VALID,916.153,VALID,0,VALID,100,VALID,0.0169808,VALID,20.1555,VALID,169,VALID,0,
2008-05-22, 01:33:00,VALID,916.175,VALID,0,VALID,100,VALID,0.0169808,VALID,20.155,VALID,169,VALID,0,
2008-05-22, 01:34:01,VALID,916.196,VALID,0,VALID,100,VALID,0.0509425,VALID,20.1618,VALID,154,VALID,0.845788,
2008-05-22, 01:35:01,VALID,916.196,VALID,0,VALID,100,VALID,0.0509425,VALID,20.1745,VALID,158,VALID,0.699491,
2008-05-22, 01:36:00,VALID,916.183,VALID,0,VALID,100,VALID,0.0509425,VALID,20.1872,VALID,136,VALID,0.788723,
2008-05-22, 01:37:00,VALID,916.182,VALID,0,VALID,100,VALID,0.0169808,VALID,20.2037,VALID,139,VALID,0.819922,
2008-05-22, 01:38:00,VALID,916.162,VALID,0,VALID,100,VALID,0.0339617,VALID,20.2132,VALID,139,VALID,0.89939,
2008-05-22, 01:39:00,VALID,916.155,VALID,0,VALID,100,VALID,0.0509425,VALID,20.2129,VALID,135,VALID,0.530488,
2008-05-22, 01:40:00,VALID,916.141,VALID,0,VALID,100,VALID,0.0849042,VALID,20.2329,VALID,131,VALID,0.488653,
2008-05-22, 01:41:00,VALID,916.131,VALID,0,VALID,100,VALID,0.0169808,VALID,20.2329,VALID,114,VALID,0.808061,
2008-05-22, 01:42:00,VALID,916.147,VALID,0,VALID,100,VALID,0.0679233,VALID,20.2391,VALID,115,VALID,0.834821,
2008-05-22, 01:43:00,VALID,916.16,VALID,0,VALID,100,VALID,0.0339617,VALID,20.2359,VALID,101,VALID,0.892442,
2008-05-22, 01:44:00,VALID,916.163,VALID,0,VALID,100,VALID,0.0679233,VALID,20.2259,VALID,97,VALID,0.729802,
2008-05-22, 01:45:00,VALID,916.161,VALID,0,VALID,100,VALID,0.0509425,VALID,20.2002,VALID,88,VALID,1.09542,
2008-05-22, 01:46:00,VALID,916.166,VALID,0,VALID,100,VALID,0.0509425,VALID,20.2105,VALID,97,VALID,1.08899,
2008-05-22, 01:47:01,VALID,916.152,VALID,0,VALID,100,VALID,0.0339617,VALID,20.2005,VALID,84,VALID,0.716442,
2008-05-22, 01:48:00,VALID,916.144,VALID,0,VALID,100,VALID,0.0509425,VALID,20.191,VALID,84,VALID,0.718023,
2008-05-22, 01:49:01,VALID,916.11,VALID,0,VALID,100,VALID,0,VALID,20.1777,VALID,89,VALID,0.834032,
2008-05-22, 01:50:00,VALID,916.103,VALID,0,VALID,100,VALID,0.0679233,VALID,20.1777,VALID,93,VALID,0.250601,
2008-05-22, 01:51:01,VALID,916.106,VALID,0,VALID,100,VALID,0.0339617,VALID,20.1748,VALID,96,VALID,0.627544,
2008-05-22, 01:52:00,VALID,916.118,VALID,0,VALID,100,VALID,0.0679233,VALID,20.1683,VALID,100,VALID,0.761446,
2008-05-22, 01:53:00,VALID,916.113,VALID,0,VALID,100,VALID,0.0339617,VALID,20.1678,VALID,100,VALID,0.616146,
2008-05-22, 01:54:00,VALID,916.122,VALID,0,VALID,100,VALID,0.0339617,VALID,20.1745,VALID,102,VALID,0.664634,
2008-05-22, 01:55:00,VALID,916.137,VALID,0,VALID,100,VALID,0.0339617,VALID,20.1745,VALID,122,VALID,0.803961,
2008-05-22, 01:56:00,VALID,916.143,VALID,0,VALID,100,VALID,0.0509425,VALID,20.1845,VALID,134,VALID,0.736328,
2008-05-22, 01:57:00,VALID,916.143,VALID,0,VALID,100,VALID,0.0339617,VALID,20.1745,VALID,155,VALID,0.818555,
2008-05-22, 01:58:01,VALID,916.141,VALID,0,VALID,100,VALID,0.0509425,VALID,20.1678,VALID,163,VALID,0.8837,
2008-05-22, 01:59:01,VALID,916.133,VALID,0,VALID,100,VALID,0,VALID,20.1683,VALID,157,VALID,0.705729,
2008-05-22, 02:00:00,VALID,916.124,VALID,0,VALID,100,VALID,0.0509425,VALID,20.1583,VALID,150,VALID,0.167411,
2008-05-22, 02:01:00,VALID,916.109,VALID,0,VALID,100,VALID,0.0509425,VALID,20.1545,VALID,150,VALID,0,
2008-05-22, 02:02:00,VALID,916.106,VALID,0,VALID,100,VALID,0.0509425,VALID,20.162,VALID,166,VALID,0,
2008-05-22, 02:03:00,VALID,916.121,VALID,0,VALID,100,VALID,0,VALID,20.1326,VALID,175,VALID,0,
2008-05-22, 02:04:00,VALID,916.112,VALID,0,VALID,100,VALID,0,VALID,20.1161,VALID,160,VALID,0,
2008-05-22, 02:05:00,VALID,916.104,VALID,0,VALID,100,VALID,0.0339617,VALID,20.1031,VALID,162,VALID,0,
2008-05-22, 02:06:00,VALID,916.1,VALID,0,VALID,100,VALID,0.0169808,VALID,20.0866,VALID,165,VALID,0.563453,
2008-05-22, 02:07:00,VALID,916.089,VALID,0,VALID,100,VALID,0.0339617,VALID,20.0834,VALID,161,VALID,0.658203,
2008-05-22, 02:08:00,VALID,916.084,VALID,0,VALID,100,VALID,-0.0509425,VALID,20.0752,VALID,159,VALID,0.689596,
2008-05-22, 02:09:00,VALID,916.075,VALID,0,VALID,100,VALID,-0.0849042,VALID,20.0789,VALID,158,VALID,0.943788,
2008-05-22, 02:10:00,VALID,916.06,VALID,0,VALID,100,VALID,-0.0849042,VALID,20.076,VALID,163,VALID,0.947731,
2008-05-22, 02:11:01,VALID,916.057,VALID,0,VALID,100,VALID,-0.0849042,VALID,20.066,VALID,161,VALID,0.8254,
2008-05-22, 02:12:01,VALID,916.056,VALID,0,VALID,100,VALID,-0.118866,VALID,20.0625,VALID,163,VALID,1.11828,
2008-05-22, 02:13:00,VALID,916.052,VALID,0,VALID,100,VALID,-0.101885,VALID,20.0762,VALID,167,VALID,0.877131,
2008-05-22, 02:14:00,VALID,916.038,VALID,0,VALID,100,VALID,-0.118866,VALID,20.0727,VALID,164,VALID,1.0908,
2008-05-22, 02:15:00,VALID,916.019,VALID,0,VALID,100,VALID,-0.101885,VALID,20.0725,VALID,161,VALID,1.52077,
2008-05-22, 02:16:01,VALID,916.011,VALID,0,VALID,100,VALID,-0.101885,VALID,20.0727,VALID,159,VALID,1.19815,
2008-05-22, 02:17:00,VALID,916.002,VALID,0,VALID,100,VALID,-0.135847,VALID,20.0727,VALID,157,VALID,1.08049,
2008-05-22, 02:18:00,VALID,915.982,VALID,0,VALID,100,VALID,-0.101885,VALID,20.0794,VALID,158,VALID,1.01734,
2008-05-22, 02:19:01,VALID,915.976,VALID,0,VALID,100,VALID,-0.101885,VALID,20.0887,VALID,158,VALID,1.29092,
2008-05-22, 02:20:01,VALID,915.982,VALID,0,VALID,100,VALID,-0.101885,VALID,20.0922,VALID,152,VALID,0.976381,
2008-05-22, 02:21:00,VALID,915.954,VALID,0,VALID,100,VALID,-0.0849042,VALID,20.0952,VALID,181,VALID,1.28249,
2008-05-22, 02:22:01,VALID,915.927,VALID,0,VALID,100,VALID,-0.0849042,VALID,20.1081,VALID,181,VALID,0.817773,
2008-05-22, 02:23:01,VALID,915.909,VALID,0,VALID,100,VALID,-0.101885,VALID,20.1211,VALID,169,VALID,0.780035,
2008-05-22, 02:24:01,VALID,915.894,VALID,0,VALID,100,VALID,-0.0679233,VALID,20.1274,VALID,163,VALID,0.630327,
2008-05-22, 02:25:01,VALID,915.892,VALID,0,VALID,100,VALID,-0.0679233,VALID,20.1349,VALID,159,VALID,1.05282,
2008-05-22, 02:26:01,VALID,915.904,VALID,0,VALID,100,VALID,-0.0679233,VALID,20.1306,VALID,164,VALID,0.663517,
2008-05-22, 02:27:01,VALID,915.916,VALID,0,VALID,100,VALID,-0.0509425,VALID,20.1438,VALID,161,VALID,0.0267078,
2008-05-22, 02:28:01,VALID,915.922,VALID,0,VALID,100,VALID,-0.0849042,VALID,20.1341,VALID,155,VALID,0,
2008-05-22, 02:29:01,VALID,915.941,VALID,0,VALID,100,VALID,-0.0339617,VALID,20.1309,VALID,155,VALID,0,
2008-05-22, 02:30:01,VALID,915.947,VALID,0,VALID,100,VALID,-0.0849042,VALID,20.1344,VALID,155,VALID,0,
2008-05-22, 02:31:00,VALID,915.941,VALID,0,VALID,100,VALID,-0.101885,VALID,20.1341,VALID,155,VALID,0,
2008-05-22, 02:32:00,VALID,915.923,VALID,0,VALID,100,VALID,-0.101885,VALID,20.1341,VALID,169,VALID,0.0840774,
2008-05-22, 02:33:00,VALID,915.903,VALID,0,VALID,100,VALID,-0.0679233,VALID,20.1181,VALID,179,VALID,0.582508,
2008-05-22, 02:34:00,VALID,915.87,VALID,0,VALID,100,VALID,-0.0679233,VALID,20.1144,VALID,175,VALID,0.3125,
2008-05-22, 02:35:00,VALID,915.861,VALID,0,VALID,100,VALID,-0.101885,VALID,20.1114,VALID,195,VALID,0.641226,
2008-05-22, 02:36:00,VALID,915.848,VALID,0,VALID,100,VALID,-0.101885,VALID,20.1017,VALID,185,VALID,0.496449,
2008-05-22, 02:37:00,VALID,915.859,VALID,0,VALID,100,VALID,-0.0679233,VALID,20.0819,VALID,171,VALID,1.17012,
2008-05-22, 02:38:00,VALID,915.857,VALID,0,VALID,100,VALID,-0.0339617,VALID,20.0777,VALID,172,VALID,0.655273,
2008-05-22, 02:39:00,VALID,915.849,VALID,0,VALID,100,VALID,0.0169808,VALID,20.0742,VALID,178,VALID,0.369097,
2008-05-22, 02:40:00,VALID,915.846,VALID,0,VALID,100,VALID,0,VALID,20.0644,VALID,174,VALID,0.754836,
2008-05-22, 02:41:00,VALID,915.844,VALID,0,VALID,100,VALID,-0.0169808,VALID,20.0515,VALID,189,VALID,0.740552,
2008-05-22, 02:42:00,VALID,915.842,VALID,0,VALID,100,VALID,0.0169808,VALID,20.0482,VALID,189,VALID,0.673234,
2008-05-22, 02:43:00,VALID,915.83,VALID,0,VALID,100,VALID,0.0339617,VALID,20.0415,VALID,192,VALID,0.622743,
2008-05-22, 02:44:00,VALID,915.826,VALID,0,VALID,100,VALID,0.0339617,VALID,20.0385,VALID,195,VALID,0.154552,
2008-05-22, 02:45:00,VALID,915.812,VALID,0,VALID,100,VALID,0,VALID,20.022,VALID,192,VALID,0,
2008-05-22, 02:46:00,VALID,915.806,VALID,0,VALID,100,VALID,0.0339617,VALID,20.0155,VALID,183,VALID,0,
2008-05-22, 02:47:00,VALID,915.785,VALID,0,VALID,100,VALID,0,VALID,20.0023,VALID,183,VALID,0,
2008-05-22, 02:48:00,VALID,915.787,VALID,0,VALID,100,VALID,0.0339617,VALID,20.0025,VALID,183,VALID,0,
2008-05-22, 02:49:00,VALID,915.777,VALID,0,VALID,100,VALID,0.0339617,VALID,19.9995,VALID,183,VALID,0,
2008-05-22, 02:50:00,VALID,915.77,VALID,0,VALID,100,VALID,0.0169808,VALID,19.9931,VALID,183,VALID,0,
2008-05-22, 02:51:00,VALID,915.77,VALID,0,VALID,100,VALID,0,VALID,19.9866,VALID,183,VALID,0,
2008-05-22, 02:52:00,VALID,915.768,VALID,0,VALID,100,VALID,0,VALID,19.9933,VALID,183,VALID,0,
2008-05-22, 02:53:00,VALID,915.768,VALID,0,VALID,100,VALID,0,VALID,19.9866,VALID,183,VALID,0,
2008-05-22, 02:54:00,VALID,915.766,VALID,0,VALID,100,VALID,-0.0169808,VALID,19.9833,VALID,183,VALID,0,
2008-05-22, 02:55:00,VALID,915.779,VALID,0,VALID,100,VALID,0.0169808,VALID,19.9866,VALID,183,VALID,0,
2008-05-22, 02:56:00,VALID,915.773,VALID,0,VALID,100,VALID,0.0169808,VALID,19.996,VALID,183,VALID,0,
2008-05-22, 02:57:00,VALID,915.768,VALID,0,VALID,100,VALID,0.0169808,VALID,20.006,VALID,183,VALID,0,
2008-05-22, 02:58:00,VALID,915.763,VALID,0,VALID,100,VALID,0.0169808,VALID,19.999,VALID,183,VALID,0.471946,
2008-05-22, 02:59:00,VALID,915.741,VALID,0,VALID,100,VALID,0,VALID,19.9993,VALID,183,VALID,0.848028,
2008-05-22, 03:00:00,VALID,915.727,VALID,0,VALID,100,VALID,0.0339617,VALID,19.9658,VALID,183,VALID,0.785866,
2008-05-22, 03:01:00,VALID,915.719,VALID,0,VALID,100,VALID,0.0169808,VALID,19.9634,VALID,183,VALID,0.797396,
2008-05-22, 03:02:00,VALID,915.691,VALID,0,VALID,100,VALID,-0.0169808,VALID,19.9509,VALID,183,VALID,0.216845,
2008-05-22, 03:03:00,VALID,915.668,VALID,0,VALID,100,VALID,0.0339617,VALID,19.9446,VALID,179,VALID,0.448289,
2008-05-22, 03:04:00,VALID,915.646,VALID,0,VALID,100,VALID,-0.0679233,VALID,19.9491,VALID,173,VALID,0.0239826,
2008-05-22, 03:05:00,VALID,915.629,VALID,0,VALID,100,VALID,-0.0849042,VALID,19.9424,VALID,169,VALID,0.294017,
2008-05-22, 03:06:00,VALID,915.616,VALID,0,VALID,100,VALID,-0.0849042,VALID,19.9327,VALID,162,VALID,0.225195,
2008-05-22, 03:07:00,VALID,915.596,VALID,0,VALID,100,VALID,-0.101885,VALID,19.9192,VALID,159,VALID,0.0090554,
2008-05-22, 03:08:00,VALID,915.592,VALID,0,VALID,100,VALID,-0.0339617,VALID,19.9092,VALID,159,VALID,0,
2008-05-22, 03:09:00,VALID,915.557,VALID,0,VALID,100,VALID,-0.0169808,VALID,19.8892,VALID,159,VALID,0,
2008-05-22, 03:10:00,VALID,915.54,VALID,0,VALID,100,VALID,0.0169808,VALID,19.873,VALID,159,VALID,0,
2008-05-22, 03:11:00,VALID,915.517,VALID,0,VALID,100,VALID,0.0169808,VALID,19.863,VALID,159,VALID,0,
2008-05-22, 03:12:00,VALID,915.5,VALID,0,VALID,100,VALID,0.0169808,VALID,19.8438,VALID,159,VALID,0,
2008-05-22, 03:13:00,VALID,915.493,VALID,0,VALID,100,VALID,0,VALID,19.8114,VALID,159,VALID,0,
2008-05-22, 03:14:00,VALID,915.472,VALID,0,VALID,100,VALID,0.0169808,VALID,19.7787,VALID,159,VALID,0,
2008-05-22, 03:15:00,VALID,915.465,VALID,0,VALID,100,VALID,0.0339617,VALID,19.756,VALID,159,VALID,0,
2008-05-22, 03:16:00,VALID,915.487,VALID,0,VALID,100,VALID,0.0339617,VALID,19.7263,VALID,159,VALID,0,
2008-05-22, 03:17:00,VALID,915.475,VALID,0,VALID,100,VALID,0.0339617,VALID,19.7138,VALID,159,VALID,0,
2008-05-22, 03:18:00,VALID,915.481,VALID,0,VALID,100,VALID,0,VALID,19.7395,VALID,159,VALID,0,
2008-05-22, 03:19:00,VALID,915.467,VALID,0,VALID,100,VALID,0.0169808,VALID,19.7562,VALID,159,VALID,0,
2008-05-22, 03:20:00,VALID,915.443,VALID,0,VALID,100,VALID,0.0509425,VALID,19.7624,VALID,159,VALID,0,
2008-05-22, 03:21:00,VALID,915.435,VALID,0,VALID,100,VALID,0.0339617,VALID,19.7754,VALID,159,VALID,0,
2008-05-22, 03:22:00,VALID,915.409,VALID,0,VALID,100,VALID,0.0169808,VALID,19.7657,VALID,159,VALID,0,
2008-05-22, 03:23:00,VALID,915.384,VALID,0,VALID,100,VALID,0,VALID,19.7692,VALID,136,VALID,0,
2008-05-22, 03:24:00,VALID,915.366,VALID,0,VALID,100,VALID,0.0509425,VALID,19.7854,VALID,111,VALID,0,
2008-05-22, 03:25:00,VALID,915.368,VALID,0,VALID,100,VALID,0.0509425,VALID,19.7722,VALID,111,VALID,0,
2008-05-22, 03:26:00,VALID,915.351,VALID,0,VALID,100,VALID,0.0339617,VALID,19.7659,VALID,161,VALID,0,
2008-05-22, 03:27:00,VALID,915.324,VALID,0,VALID,100,VALID,0.0509425,VALID,19.7659,VALID,217,VALID,0,
2008-05-22, 03:28:00,VALID,915.311,VALID,0,VALID,100,VALID,0.0679233,VALID,19.7517,VALID,223,VALID,0,
2008-05-22, 03:29:00,VALID,915.309,VALID,0,VALID,100,VALID,0.0679233,VALID,19.7427,VALID,223,VALID,0,
2008-05-22, 03:30:00,VALID,915.282,VALID,0,VALID,100,VALID,0,VALID,19.727,VALID,223,VALID,0,
2008-05-22, 03:31:00,VALID,915.253,VALID,0,VALID,100,VALID,0.0169808,VALID,19.7173,VALID,229,VALID,0,
2008-05-22, 03:32:00,VALID,915.243,VALID,0,VALID,100,VALID,0.0169808,VALID,19.7036,VALID,253,VALID,0,
2008-05-22, 03:33:00,VALID,915.237,VALID,0,VALID,100,VALID,0.0509425,VALID,19.6963,VALID,259,VALID,0,
2008-05-22, 03:34:00,VALID,915.237,VALID,0,VALID,100,VALID,0.0849042,VALID,19.7031,VALID,258,VALID,0,
2008-05-22, 03:35:00,VALID,915.208,VALID,0,VALID,100,VALID,0.0509425,VALID,19.6901,VALID,258,VALID,0,
2008-05-22, 03:36:00,VALID,915.194,VALID,0,VALID,100,VALID,0.0509425,VALID,19.7008,VALID,258,VALID,0,
2008-05-22, 03:37:00,VALID,915.216,VALID,0,VALID,100,VALID,0,VALID,19.7038,VALID,258,VALID,0,
2008-05-22, 03:38:00,VALID,915.205,VALID,0,VALID,100,VALID,0,VALID,19.708,VALID,257,VALID,0,
2008-05-22, 03:39:00,VALID,915.22,VALID,0,VALID,100,VALID,-0.0509425,VALID,19.7053,VALID,256,VALID,0,
2008-05-22, 03:40:00,VALID,915.219,VALID,0,VALID,100,VALID,-0.0679233,VALID,19.6891,VALID,252,VALID,0,
2008-05-22, 03:41:00,VALID,915.234,VALID,0,VALID,100,VALID,-0.0849042,VALID,19.6826,VALID,242,VALID,0,
2008-05-22, 03:42:00,VALID,915.24,VALID,0,VALID,100,VALID,-0.0849042,VALID,19.6861,VALID,237,VALID,0,
2008-05-22, 03:43:00,VALID,915.256,VALID,0,VALID,100,VALID,-0.118866,VALID,19.7023,VALID,239,VALID,0,
2008-05-22, 03:44:00,VALID,915.264,VALID,0,VALID,100,VALID,-0.0849042,VALID,19.7155,VALID,230,VALID,0,